When you browse on this site, cookies collect data to enhance your experience and personalize the content and advertising you see.
Visit our Privacy Policy to learn more. By continuing to use the site, you agree to this use of cookies and data.
  • In Spain
  • List of Countries
  • For 7 days
  • Water Temperature
  • Weather Map
  • Weather Widgets
  • user-avatar
    Login

    Hourly Weather Gmyri

    Today, 6 June, Saturday

    Time Temperature Precipitation Wind Pressure Humidity
    00:00 +10°C° 0 mm 3 mps 736 mmHg 93%
    01:00 +10°C° 0 mm 3 mps 736 mmHg 94%
    02:00 +10°C° 0 mm 3 mps 736 mmHg 96%
    03:00 +11°C° 0 mm 3 mps 736 mmHg 96%
    04:00 +12°C° 0 mm 4 mps 735 mmHg 96%
    05:00 +12°C° 0 mm 4 mps 735 mmHg 96%
    06:00 +14°C° 0 mm 4 mps 735 mmHg 93%
    07:00 +15°C° 0 mm 4 mps 735 mmHg 90%
    08:00 +17°C° 0 mm 5 mps 736 mmHg 87%
    09:00 +18°C° 0.4 mm 4 mps 736 mmHg 88%
    10:00 +19°C° 0.4 mm 4 mps 736 mmHg 89%
    11:00 +19°C° 0.4 mm 3 mps 736 mmHg 90%
    12:00 +20°C° 1 mm 3 mps 737 mmHg 89%
    13:00 +20°C° 1 mm 4 mps 737 mmHg 88%
    14:00 +21°C° 1 mm 4 mps 737 mmHg 87%
    15:00 +21°C° 0.3 mm 4 mps 737 mmHg 86%
    16:00 +21°C° 0.3 mm 4 mps 737 mmHg 85%
    17:00 +21°C° 0.3 mm 4 mps 737 mmHg 85%
    18:00 +20°C° 0.1 mm 3 mps 737 mmHg 88%
    19:00 +19°C° 0.1 mm 3 mps 738 mmHg 91%
    20:00 +18°C° 0.1 mm 2 mps 738 mmHg 94%
    21:00 +17°C° 0 mm 2 mps 739 mmHg 94%
    22:00 +16°C° 0 mm 2 mps 739 mmHg 94%
    23:00 +15°C° 0 mm 2 mps 740 mmHg 94%

    Tomorrow, 7 June, Sunday

    Time Temperature Precipitation Wind Pressure Humidity
    00:00 +15°C° 0 mm 2 mps 740 mmHg 93%
    01:00 +14°C° 0 mm 2 mps 740 mmHg 93%
    02:00 +14°C° 0 mm 1 mps 741 mmHg 93%
    03:00 +14°C° 0 mm 1 mps 741 mmHg 92%
    04:00 +14°C° 0 mm 1 mps 741 mmHg 91%
    05:00 +14°C° 0 mm 1 mps 742 mmHg 91%
    06:00 +16°C° 0 mm 1 mps 742 mmHg 86%
    07:00 +19°C° 0 mm 1 mps 742 mmHg 81%
    08:00 +21°C° 0 mm 1 mps 743 mmHg 77%
    09:00 +22°C° 0 mm 1 mps 743 mmHg 72%
    10:00 +23°C° 0 mm 1 mps 743 mmHg 68%
    11:00 +24°C° 0 mm 1 mps 743 mmHg 63%
    12:00 +25°C° 0 mm 1 mps 743 mmHg 62%
    13:00 +25°C° 0 mm 1 mps 743 mmHg 60%
    14:00 +26°C° 0 mm 2 mps 743 mmHg 59%
    15:00 +25°C° 0 mm 2 mps 743 mmHg 62%
    16:00 +25°C° 0 mm 2 mps 742 mmHg 66%
    17:00 +25°C° 0 mm 2 mps 742 mmHg 69%
    18:00 +24°C° 0 mm 2 mps 742 mmHg 74%
    19:00 +21°C° 0 mm 2 mps 742 mmHg 78%
    20:00 +20°C° 0 mm 2 mps 742 mmHg 83%
    21:00 +19°C° 0 mm 2 mps 742 mmHg 85%
    22:00 +18°C° 0 mm 2 mps 742 mmHg 88%
    23:00 +18°C° 0 mm 2 mps 742 mmHg 90%

    Day after tomorrow, 8 June, Monday

    Time Temperature Precipitation Wind Pressure Humidity
    00:00 +17°C° 0 mm 2 mps 742 mmHg 92%
    01:00 +17°C° 0 mm 2 mps 742 mmHg 93%
    02:00 +17°C° 0 mm 2 mps 742 mmHg 95%
    03:00 +17°C° 0.1 mm 2 mps 742 mmHg 95%
    04:00 +18°C° 0.1 mm 2 mps 742 mmHg 95%
    05:00 +18°C° 0.1 mm 2 mps 742 mmHg 95%
    06:00 +19°C° 0 mm 2 mps 742 mmHg 92%
    07:00 +21°C° 0 mm 3 mps 743 mmHg 88%
    08:00 +24°C° 0 mm 3 mps 743 mmHg 85%
    09:00 +25°C° 0.1 mm 3 mps 743 mmHg 81%
    10:00 +26°C° 0.1 mm 3 mps 743 mmHg 78%
    11:00 +27°C° 0.1 mm 3 mps 743 mmHg 75%
    12:00 +27°C° 0.9 mm 3 mps 743 mmHg 74%
    13:00 +27°C° 0.9 mm 3 mps 743 mmHg 74%
    14:00 +27°C° 0.9 mm 2 mps 742 mmHg 73%
    15:00 +27°C° 0.9 mm 2 mps 742 mmHg 74%
    16:00 +27°C° 0.9 mm 1 mps 742 mmHg 74%
    17:00 +27°C° 0.9 mm 1 mps 742 mmHg 74%
    18:00 +25°C° 0.3 mm 1 mps 742 mmHg 78%
    19:00 +24°C° 0.3 mm 1 mps 742 mmHg 83%
    20:00 +22°C° 0.3 mm 1 mps 742 mmHg 87%
    21:00 +22°C° 0.1 mm 1 mps 742 mmHg 89%
    22:00 +21°C° 0.1 mm 1 mps 742 mmHg 91%
    23:00 +20°C° 0.1 mm 1 mps 742 mmHg 92%

    9 June, Tuesday

    Time Temperature Precipitation Wind Pressure Humidity
    00:00 +20°C° 0.2 mm 1 mps 742 mmHg 93%
    01:00 +19°C° 0.2 mm 1 mps 742 mmHg 93%
    02:00 +19°C° 0.2 mm 1 mps 742 mmHg 94%
    03:00 +19°C° 0 mm 1 mps 742 mmHg 93%
    04:00 +20°C° 0 mm 1 mps 742 mmHg 93%
    05:00 +20°C° 0 mm 1 mps 742 mmHg 93%
    06:00 +21°C° 0 mm 1 mps 743 mmHg 89%
    07:00 +23°C° 0 mm 1 mps 743 mmHg 85%
    08:00 +24°C° 0 mm 1 mps 743 mmHg 81%
    09:00 +25°C° 0 mm 1 mps 743 mmHg 77%
    10:00 +26°C° 0 mm 1 mps 743 mmHg 72%
    11:00 +27°C° 0 mm 2 mps 743 mmHg 68%
    12:00 +28°C° 0.1 mm 2 mps 743 mmHg 66%
    13:00 +28°C° 0.1 mm 1 mps 743 mmHg 65%
    14:00 +28°C° 0.1 mm 1 mps 743 mmHg 63%
    15:00 +28°C° 0.4 mm 1 mps 743 mmHg 68%
    16:00 +27°C° 0.4 mm 2 mps 742 mmHg 73%
    17:00 +27°C° 0.4 mm 2 mps 742 mmHg 79%
    18:00 +25°C° 0.2 mm 2 mps 742 mmHg 83%
    19:00 +24°C° 0.2 mm 2 mps 742 mmHg 87%
    20:00 +23°C° 0.2 mm 2 mps 742 mmHg 91%
    21:00 +21°C° 0 mm 2 mps 742 mmHg 92%
    22:00 +20°C° 0 mm 2 mps 742 mmHg 94%
    23:00 +20°C° 0 mm 2 mps 742 mmHg 96%

    10 June, Wednesday

    Time Temperature Precipitation Wind Pressure Humidity
    00:00 +19°C° 0 mm 2 mps 742 mmHg 96%
    01:00 +19°C° 0 mm 2 mps 742 mmHg 97%
    02:00 +18°C° 0 mm 2 mps 742 mmHg 97%
    03:00 +19°C° 0 mm 3 mps 742 mmHg 97%
    04:00 +19°C° 0 mm 3 mps 742 mmHg 97%
    05:00 +19°C° 0 mm 3 mps 742 mmHg 97%
    06:00 +20°C° 0 mm 3 mps 742 mmHg 94%
    07:00 +21°C° 0 mm 3 mps 742 mmHg 91%
    08:00 +22°C° 0 mm 3 mps 742 mmHg 88%
    09:00 +24°C° 0.2 mm 3 mps 742 mmHg 84%
    10:00 +25°C° 0.2 mm 4 mps 742 mmHg 80%
    11:00 +26°C° 0.2 mm 4 mps 742 mmHg 76%
    12:00 +26°C° 0.2 mm 4 mps 742 mmHg 74%
    13:00 +27°C° 0.2 mm 3 mps 741 mmHg 72%
    14:00 +27°C° 0.2 mm 3 mps 741 mmHg 70%
    15:00 +27°C° 0.2 mm 3 mps 741 mmHg 72%
    16:00 +27°C° 0.2 mm 3 mps 741 mmHg 74%
    17:00 +26°C° 0.2 mm 3 mps 741 mmHg 77%
    18:00 +25°C° 0.1 mm 3 mps 740 mmHg 81%
    19:00 +23°C° 0.1 mm 2 mps 740 mmHg 86%
    20:00 +21°C° 0.1 mm 2 mps 740 mmHg 90%
    21:00 +20°C° 0 mm 2 mps 740 mmHg 92%
    22:00 +19°C° 0 mm 2 mps 740 mmHg 93%
    23:00 +18°C° 0 mm 2 mps 740 mmHg 94%

    11 June, Thursday

    Time Temperature Precipitation Wind Pressure Humidity
    00:00 +18°C° 0 mm 2 mps 740 mmHg 95%
    01:00 +18°C° 0 mm 2 mps 740 mmHg 95%
    02:00 +17°C° 0 mm 2 mps 740 mmHg 96%
    03:00 +17°C° 0 mm 2 mps 740 mmHg 96%
    04:00 +18°C° 0 mm 2 mps 739 mmHg 95%
    05:00 +18°C° 0 mm 2 mps 739 mmHg 95%
    06:00 +19°C° 0 mm 2 mps 739 mmHg 91%
    07:00 +21°C° 0 mm 2 mps 739 mmHg 87%
    08:00 +23°C° 0 mm 2 mps 739 mmHg 83%
    09:00 +24°C° 0.3 mm 2 mps 739 mmHg 80%
    10:00 +25°C° 0.3 mm 2 mps 739 mmHg 77%
    11:00 +26°C° 0.3 mm 3 mps 739 mmHg 75%
    12:00 +27°C° 1 mm 2 mps 739 mmHg 72%
    13:00 +27°C° 1 mm 2 mps 738 mmHg 70%
    14:00 +28°C° 1 mm 2 mps 738 mmHg 67%
    15:00 +28°C° 0.2 mm 2 mps 738 mmHg 69%
    16:00 +28°C° 0.2 mm 2 mps 738 mmHg 70%
    17:00 +27°C° 0.2 mm 2 mps 738 mmHg 72%
    18:00 +26°C° 0.1 mm 2 mps 738 mmHg 77%
    19:00 +24°C° 0.1 mm 2 mps 738 mmHg 82%
    20:00 +23°C° 0.1 mm 1 mps 737 mmHg 87%
    21:00 +22°C° 0.1 mm 1 mps 738 mmHg 88%
    22:00 +21°C° 0.1 mm 1 mps 738 mmHg 89%
    23:00 +20°C° 0.1 mm 1 mps 738 mmHg 90%
    Show more